Flag for Iran Weather past 2 weeks in Bandar-Abbas, Iran

Now
95 °F

Clear.


Feels Like: 107 °F
Forecast: 77 / 104 °F
Wind: 14 mph from Southeast

Location: Bandarabbass

Current Time: Jun 3, 2015 at 10:26:38 PM

Latest Report: Jun 3, 2015 at 10:00 PM


Visibility: 4 mi

Pressure: 29.50 "Hg

Humidity: 53%

Dew point: 75 °F

Location of Bandar-AbbasLocation

Historic Weather in Bandar-Abbas — Graph

°F

Bandar-Abbas temperature yesterday

Maximum temperature yesterday: 117 °F (at 11:30 AM)
Minimum temperature yesterday: 84 °F (at 5:30 AM)
Average temperature yesterday: 104 °F

Past Weeks' High & Low Weather Summary

 TemperatureHumidityPressure
High117 °F (Jun 2, 11:30 AM)94% (May 21, 12:30 AM)29.74 "Hg (May 21, 12:30 AM)
Low75 °F (May 22, 6:30 AM)9% (May 22, 3:00 PM)29.47 "Hg (Jun 3, 5:30 PM)
Average93 °F54%29.62 "Hg
* Reported May 19 9:30 PM — Jun 3 9:30 PM, Bandar-Abbas, Weather by CustomWeather, © 2015

Note: Actual official high and low records may vary slightly from our data, if they occured in-between our weather recording intervals... More about our weather records

Advertising

Bandar-Abbas weather history for previous 24 hours

 ConditionsComfort  
Time TempWeatherWind HumidityBarometerVisibility
9:30 PM
Wed, Jun 3
97 °FClear.9 mph47%29.47 "Hg4 mi
9:00 PM99 °FClear.5 mph37%29.47 "Hg4 mi
8:00 PM104 °FClear.12 mph24%29.47 "Hg4 mi
7:30 PM108 °FClear.9 mph16%29.47 "Hg4 mi
7:00 PM108 °FClear.14 mph16%29.47 "Hg4 mi
6:30 PM109 °FClear.9 mph16%29.47 "Hg4 mi
6:00 PM109 °FClear.14 mph17%29.47 "Hg4 mi
5:30 PM109 °FClear.14 mph17%29.47 "Hg4 mi
5:00 PM109 °FClear.9 mph19%29.50 "Hg4 mi
4:30 PM111 °FClear.14 mph16%29.50 "Hg4 mi
4:00 PM111 °FClear.14 mph17%29.50 "Hg4 mi
3:30 PM113 °FClear.16 mph12%29.53 "Hg4 mi
3:00 PM113 °FClear.12 mph15%29.53 "Hg4 mi
2:30 PM113 °FClear.14 mph15%29.53 "Hg4 mi
2:00 PM113 °FHaze.14 mph12%29.56 "Hg3 mi
1:30 PM113 °FHaze.14 mph12%29.56 "Hg3 mi
1:00 PM113 °FHaze.12 mph12%29.59 "Hg3 mi
12:30 PM113 °FHaze.12 mph12%29.59 "Hg3 mi
12:00 PM113 °FHaze.12 mph12%29.62 "Hg3 mi
11:30 AM113 °FHaze.12 mph12%29.62 "Hg3 mi
11:00 AM113 °FHaze.9 mph12%29.62 "Hg3 mi
10:30 AM111 °FHaze.5 mph13%29.62 "Hg3 mi
10:00 AM109 °FHaze.5 mph15%29.62 "Hg3 mi
9:30 AM106 °FHaze.5 mph18%29.62 "Hg3 mi
9:00 AM104 °FClear.5 mph19%29.62 "Hg4 mi
8:30 AM100 °FClear.5 mph22%29.62 "Hg4 mi
8:00 AM97 °FClear.No wind27%29.59 "Hg4 mi
7:30 AM91 °FClear.5 mph32%29.59 "Hg4 mi
7:00 AM88 °FClear.5 mph35%29.59 "Hg4 mi
6:30 AM84 °FHaze.5 mph43%29.59 "Hg3 mi
5:30 AM84 °FClear.5 mph40%29.59 "Hg4 mi
4:20 AM86 °FClear.5 mph40%29.59 "Hg4 mi
2:30 AM90 °FClear.7 mph36%29.59 "Hg4 mi
2:00 AM91 °FClear.7 mph38%29.59 "Hg4 mi
1:30 AM91 °FClear.7 mph38%29.59 "Hg4 mi
1:00 AM93 °FClear.7 mph41%29.59 "Hg4 mi
12:30 AM93 °FClear.7 mph41%29.59 "Hg4 mi
11:30 PM
Tue, Jun 2
95 °FClear.7 mph44%29.59 "Hg4 mi
11:00 PM97 °FClear.7 mph39%29.59 "Hg4 mi
10:30 PM102 °FClear.14 mph21%29.59 "Hg4 mi
10:00 PM97 °FClear.5 mph30%29.56 "Hg4 mi
Weather by CustomWeather, © 2015

See weather overviewHow to use our weather pages